| time (UTC) | temp F | wind direction | speed MPH | gust MPH | rain 1hr in | rain 24hr in | rain mn in | humidity % | barometer mb |
| 20260904123824 | 58 | 94 | 7.0 | 13.0 | 0.00 | 0.54 | 0.00 | 97 | 1013.8 |
| 20260904122830 | 58 | 102 | 7.0 | 13.0 | 0.00 | 0.54 | 0.00 | 97 | 1013.9 |
| 20260904121847 | 58 | 105 | 5.0 | 8.0 | 0.00 | 0.54 | 0.00 | 97 | 1013.6 |
| 20260904120840 | 58 | 88 | 5.0 | 9.0 | 0.00 | 0.54 | 0.00 | 97 | 1013.4 |
| 20260904115856 | 59 | 93 | 6.0 | 9.0 | 0.00 | 0.55 | 0.00 | 97 | 1013.3 |
| 20260904114901 | 59 | 97 | 6.0 | 8.0 | 0.00 | 0.55 | 0.00 | 97 | 1013.2 |
| 20260904113847 | 60 | 80 | 5.0 | 8.0 | 0.00 | 0.56 | 0.00 | 97 | 1013.2 |
| 20260904112848 | 60 | 97 | 5.0 | 8.0 | 0.00 | 0.57 | 0.00 | 97 | 1013.2 |
| 20260904111854 | 60 | 84 | 5.0 | 8.0 | 0.00 | 0.58 | 0.00 | 97 | 1013.1 |
| 20260904110833 | 60 | 85 | 4.0 | 7.0 | 0.00 | 0.59 | 0.00 | 97 | 1013.2 |
| 20260904105813 | 61 | 97 | 4.0 | 7.0 | 0.00 | 0.59 | 0.00 | 97 | 1013.2 |
| 20260904104828 | 61 | 103 | 4.0 | 6.0 | 0.00 | 0.59 | 0.00 | 97 | 1013.2 |
| 20260904103838 | 61 | 108 | 3.0 | 6.0 | 0.00 | 0.61 | 0.00 | 97 | 1013.2 |
| 20260904102854 | 61 | 100 | 3.0 | 7.0 | 0.00 | 0.64 | 0.00 | 97 | 1013.1 |
| 20260904101906 | 61 | 104 | 3.0 | 8.0 | 0.00 | 0.66 | 0.00 | 97 | 1013.1 |
| 20260904100857 | 61 | 118 | 4.0 | 8.0 | 0.00 | 0.68 | 0.00 | 97 | 1013.2 |
| 20260904095857 | 61 | 146 | 3.0 | 7.0 | 0.00 | 0.70 | 0.00 | 97 | 1013.2 |
| 20260904094841 | 61 | 113 | 2.0 | 4.0 | 0.00 | 0.74 | 0.00 | 97 | 1013.3 |
| 20260904093818 | 61 | 106 | 1.0 | 4.0 | 0.00 | 0.77 | 0.00 | 97 | 1013.2 |
| 20260904092812 | 61 | 109 | 3.0 | 8.0 | 0.00 | 0.82 | 0.00 | 97 | 1013.0 |
| 20260904091824 | 61 | 112 | 4.0 | 8.0 | 0.00 | 0.95 | 0.00 | 97 | 1012.9 |
| 20260904090821 | 60 | 126 | 3.0 | 7.0 | 0.00 | 1.11 | 0.00 | 97 | 1013.0 |
| 20260904085817 | 60 | 118 | 3.0 | 6.0 | 0.00 | 1.24 | 0.00 | 97 | 1012.9 |
| 20260904084756 | 60 | 117 | 3.0 | 6.0 | 0.00 | 1.24 | 0.00 | 97 | 1013.0 |
| 20260904083725 | 59 | 126 | 3.0 | 6.0 | 0.00 | 1.24 | 0.00 | 97 | 1013.0 |
| 20260904082723 | 59 | 119 | 3.0 | 6.0 | 0.00 | 1.24 | 0.00 | 96 | 1013.0 |
| 20260904080554 | 59 | 105 | 3.0 | 8.0 | 0.00 | 1.24 | 0.00 | 96 | 1012.8 |
| 20260904075609 | 58 | 105 | 4.0 | 8.0 | 0.00 | 1.24 | 0.00 | 96 | 1012.9 |
| 20260904074600 | 59 | 113 | 5.0 | 9.0 | 0.00 | 1.24 | 0.00 | 96 | 1012.7 |
| 20260904073551 | 59 | 115 | 5.0 | 9.0 | 0.00 | 1.24 | 0.00 | 96 | 1012.7 |
| 20260904072538 | 59 | 107 | 6.0 | 9.0 | 0.00 | 1.24 | 0.00 | 96 | 1012.7 |
| 20260904071548 | 59 | 95 | 6.0 | 9.0 | 0.00 | 1.24 | 0.00 | 96 | 1012.5 |
| 20260904070534 | 59 | 94 | 6.0 | 8.0 | 0.00 | 1.24 | 0.00 | 95 | 1012.5 |
| 20260904065541 | 59 | 101 | 6.0 | 8.0 | 0.00 | 1.24 | 0.00 | 95 | 1012.5 |
| 20260904064545 | 59 | 108 | 6.0 | 10.0 | 0.00 | 1.24 | 0.00 | 95 | 1012.6 |
| 20260904063608 | 59 | 96 | 6.0 | 10.0 | 0.00 | 1.24 | 0.00 | 95 | 1012.6 |
| 20260904060355 | 60 | 109 | 6.0 | 9.0 | 0.00 | 1.24 | 0.00 | 95 | 1012.4 |
| 20260904055348 | 60 | 84 | 5.0 | 8.0 | 0.00 | 1.24 | 1.24 | 94 | 1012.5 |
| 20260904054324 | 60 | 89 | 5.0 | 8.0 | 0.00 | 1.24 | 1.24 | 94 | 1012.5 |
| 20260904053304 | 61 | 74 | 5.0 | 8.0 | 0.00 | 1.24 | 1.24 | 94 | 1012.3 |
| 20260904052257 | 61 | 92 | 5.0 | 9.0 | 0.00 | 1.24 | 1.24 | 94 | 1012.3 |
| 20260904051311 | 62 | 83 | 5.0 | 11.0 | 0.00 | 1.24 | 1.24 | 94 | 1012.4 |
| 20260904050318 | 62 | 97 | 6.0 | 11.0 | 0.00 | 1.24 | 1.24 | 94 | 1012.3 |
| 20260904043054 | 62 | 132 | 5.0 | 9.0 | 0.00 | 1.24 | 1.24 | 93 | 1011.7 |
| 20260904042025 | 62 | 138 | 5.0 | 8.0 | 0.00 | 1.24 | 1.24 | 93 | 1011.7 |
| 20260904041008 | 63 | 112 | 6.0 | 10.0 | 0.00 | 1.24 | 1.24 | 93 | 1011.5 |
| 20260904034759 | 63 | 113 | 7.0 | 11.0 | 0.00 | 1.24 | 1.24 | 92 | 1011.6 |
| 20260904033758 | 63 | 115 | 7.0 | 12.0 | 0.00 | 1.24 | 1.24 | 92 | 1011.6 |
| 20260904032747 | 63 | 133 | 7.0 | 12.0 | 0.00 | 1.24 | 1.24 | 91 | 1011.7 |
| 20260904031721 | 63 | 133 | 7.0 | 12.0 | 0.00 | 1.24 | 1.24 | 92 | 1011.6 |
| 20260904030721 | 63 | 117 | 8.0 | 16.0 | 0.05 | 1.24 | 1.24 | 91 | 1011.3 |
| 20260904025743 | 64 | 83 | 10.0 | 17.0 | 0.33 | 1.22 | 1.23 | 91 | 1011.3 |
| 20260904024749 | 63 | 54 | 13.0 | 31.0 | 0.57 | 1.14 | 1.15 | 89 | 1011.2 |
| 20260904023719 | 63 | 74 | 16.0 | 31.0 | 0.81 | 1.01 | 1.03 | 87 | 1010.8 |
| 20260904022734 | 63 | 87 | 6.0 | 33.0 | 0.92 | 0.88 | 0.90 | 84 | 1012.3 |
| 20260904021713 | 65 | 327 | 16.0 | 33.0 | 0.58 | 0.74 | 0.76 | 86 | 1012.3 |
| 20260904020730 | 67 | 28 | 10.0 | 22.0 | 0.00 | 0.70 | 0.70 | 80 | 1011.8 |
| 20260904015738 | 68 | 86 | 8.0 | 14.0 | 0.00 | 0.70 | 0.70 | 82 | 1010.6 |
| 20260904014711 | 68 | 78 | 8.0 | 14.0 | 0.00 | 0.70 | 0.70 | 81 | 1010.4 |
| 20260904013651 | 69 | 111 | 8.0 | 14.0 | 0.00 | 0.70 | 0.70 | 80 | 1010.0 |
| 20260904012713 | 69 | 89 | 9.0 | 13.0 | 0.00 | 0.70 | 0.70 | 79 | 1009.9 |
| 20260904011723 | 70 | 99 | 9.0 | 16.0 | 0.00 | 0.70 | 0.70 | 77 | 1009.9 |
| 20260904010741 | 71 | 112 | 8.0 | 16.0 | 0.00 | 0.70 | 0.70 | 75 | 1010.0 |
| 20260904005712 | 72 | 88 | 9.0 | 15.0 | 0.00 | 0.70 | 0.70 | 74 | 1009.8 |
| 20260904002353 | 75 | 106 | 8.0 | 15.0 | 0.00 | 0.70 | 0.70 | 69 | 1009.1 |
| 20260904001333 | 76 | 89 | 6.0 | 10.0 | 0.00 | 0.70 | 0.70 | 67 | 1009.2 |
| 20260904000342 | 77 | 107 | 6.0 | 10.0 | 0.00 | 0.70 | 0.70 | 66 | 1008.9 |
| 20260903235309 | 77 | 103 | 6.0 | 10.0 | 0.00 | 0.70 | 0.70 | 66 | 1009.0 |
| 20260903234248 | 77 | 115 | 7.0 | 10.0 | 0.00 | 0.70 | 0.70 | 65 | 1008.9 |
| 20260903233239 | 77 | 77 | 6.0 | 10.0 | 0.00 | 0.70 | 0.70 | 65 | 1008.6 |
| 20260903232214 | 78 | 101 | 5.0 | 10.0 | 0.00 | 0.70 | 0.70 | 65 | 1008.7 |
| 20260903231222 | 78 | 82 | 5.0 | 8.0 | 0.00 | 0.70 | 0.70 | 65 | 1008.6 |
| 20260903225120 | 78 | 92 | 5.0 | 12.0 | 0.00 | 0.70 | 0.70 | 66 | 1008.3 |
| 20260903224050 | 78 | 98 | 4.0 | 12.0 | 0.00 | 0.70 | 0.70 | 65 | 1008.1 |
| 20260903223042 | 78 | 71 | 2.0 | 5.0 | 0.00 | 0.70 | 0.70 | 63 | 1008.2 |
| 20260903222102 | 79 | 79 | 2.0 | 6.0 | 0.00 | 0.70 | 0.70 | 61 | 1008.3 |
| 20260903221115 | 79 | 130 | 2.0 | 6.0 | 0.00 | 0.70 | 0.70 | 61 | 1008.3 |
| 20260903220056 | 79 | 156 | 3.0 | 6.0 | 0.00 | 0.70 | 0.70 | 63 | 1008.2 |
| 20260903215115 | 79 | 76 | 1.0 | 6.0 | 0.00 | 0.70 | 0.70 | 63 | 1008.1 |
| 20260903214047 | 78 | 88 | 1.0 | 0.0 | 0.00 | 0.70 | 0.70 | 63 | 1007.9 |
| 20260903213039 | 78 | 133 | 1.0 | 5.0 | 0.00 | 0.70 | 0.70 | 64 | 1008.0 |
| 20260903212031 | 77 | 141 | 2.0 | 9.0 | 0.00 | 0.70 | 0.70 | 67 | 1008.0 |
| 20260903211030 | 76 | 163 | 5.0 | 9.0 | 0.00 | 0.70 | 0.70 | 68 | 1008.2 |
| 20260903210045 | 75 | 51 | 4.0 | 11.0 | 0.00 | 0.70 | 0.70 | 68 | 1008.2 |
| 20260903205035 | 75 | 116 | 6.0 | 11.0 | 0.00 | 0.70 | 0.70 | 69 | 1008.3 |
| 20260903201738 | 73 | 77 | 7.0 | 11.0 | 0.00 | 0.70 | 0.70 | 72 | 1008.6 |
| 20260903200742 | 73 | 90 | 7.0 | 10.0 | 0.00 | 0.70 | 0.70 | 72 | 1008.8 |
| 20260903195758 | 73 | 104 | 7.0 | 12.0 | 0.00 | 0.70 | 0.70 | 73 | 1008.8 |
| 20260903194813 | 72 | 123 | 8.0 | 16.0 | 0.00 | 0.70 | 0.70 | 72 | 1008.8 |
| 20260903193743 | 73 | 119 | 10.0 | 20.0 | 0.00 | 0.70 | 0.70 | 70 | 1008.7 |
| 20260903192719 | 74 | 93 | 11.0 | 20.0 | 0.00 | 0.70 | 0.70 | 68 | 1008.6 |
| 20260903191654 | 74 | 113 | 10.0 | 16.0 | 0.00 | 0.70 | 0.70 | 68 | 1008.8 |
| 20260903190635 | 73 | 74 | 10.0 | 18.0 | 0.00 | 0.70 | 0.70 | 71 | 1008.7 |
| 20260903185604 | 73 | 131 | 10.0 | 18.0 | 0.00 | 0.70 | 0.70 | 71 | 1008.8 |
| 20260903184550 | 73 | 94 | 10.0 | 16.0 | 0.00 | 0.70 | 0.70 | 73 | 1008.7 |
| 20260903182335 | 71 | 126 | 8.0 | 12.0 | 0.00 | 0.70 | 0.70 | 75 | 1009.0 |
| 20260903181302 | 71 | 118 | 8.0 | 14.0 | 0.00 | 0.70 | 0.70 | 75 | 1009.0 |
| 20260903175203 | 71 | 139 | 6.0 | 13.0 | 0.00 | 0.70 | 0.70 | 75 | 1009.0 |
| 20260903173033 | 72 | 144 | 8.0 | 15.0 | 0.00 | 0.70 | 0.70 | 74 | 1008.6 |
| 20260903172005 | 72 | 114 | 11.0 | 17.0 | 0.00 | 0.70 | 0.70 | 74 | 1008.4 |
| 20260903170947 | 72 | 116 | 13.0 | 25.0 | 0.00 | 0.70 | 0.70 | 73 | 1008.7 |
| 20260903165942 | 72 | 98 | 12.0 | 25.0 | 0.00 | 0.70 | 0.70 | 72 | 1008.3 |
| 20260903164919 | 72 | 118 | 9.0 | 16.0 | 0.00 | 0.70 | 0.70 | 74 | 1008.1 |
| 20260903163914 | 72 | 98 | 9.0 | 15.0 | 0.00 | 0.70 | 0.70 | 74 | 1008.1 |
| 20260903162917 | 71 | 159 | 9.0 | 16.0 | 0.00 | 0.70 | 0.70 | 74 | 1008.2 |
| 20260903161936 | 71 | 119 | 8.0 | 16.0 | 0.00 | 0.70 | 0.70 | 76 | 1008.3 |
| 20260903160910 | 70 | 125 | 8.0 | 14.0 | 0.00 | 0.70 | 0.70 | 77 | 1008.3 |
| 20260903155919 | 70 | 157 | 8.0 | 14.0 | 0.00 | 0.70 | 0.70 | 77 | 1008.5 |
| 20260903154938 | 69 | 140 | 6.0 | 11.0 | 0.00 | 0.70 | 0.70 | 79 | 1008.5 |
| 20260903153923 | 69 | 103 | 6.0 | 10.0 | 0.00 | 0.70 | 0.70 | 81 | 1008.5 |
| 20260903152912 | 68 | 98 | 5.0 | 9.0 | 0.00 | 0.70 | 0.70 | 81 | 1008.6 |
| 20260903151846 | 67 | 140 | 5.0 | 11.0 | 0.00 | 0.70 | 0.70 | 83 | 1008.5 |
| 20260903150828 | 66 | 108 | 7.0 | 13.0 | 0.00 | 0.70 | 0.70 | 84 | 1008.2 |
| 20260903145806 | 65 | 119 | 8.0 | 16.0 | 0.00 | 0.70 | 0.70 | 85 | 1008.2 |
| 20260903144824 | 65 | 104 | 8.0 | 16.0 | 0.00 | 0.70 | 0.70 | 87 | 1008.1 |
| 20260903143829 | 64 | 114 | 9.0 | 13.0 | 0.00 | 0.70 | 0.70 | 88 | 1008.2 |
| 20260903142817 | 63 | 71 | 5.0 | 10.0 | 0.00 | 0.70 | 0.70 | 91 | 1008.2 |
| 20260903141802 | 62 | 98 | 5.0 | 10.0 | 0.00 | 0.70 | 0.70 | 91 | 1008.3 |
| 20260903140811 | 62 | 98 | 6.0 | 12.0 | 0.00 | 0.70 | 0.70 | 91 | 1008.1 |
| 20260903134655 | 62 | 113 | 6.0 | 15.0 | 0.00 | 0.70 | 0.70 | 90 | 1008.2 |
| 20260903133711 | 62 | 143 | 9.0 | 15.0 | 0.00 | 0.70 | 0.70 | 90 | 1008.1 |
| 20260903131529 | 62 | 95 | 15.0 | 26.0 | 0.00 | 0.70 | 0.70 | 90 | 1007.6 |